Showing default

HULIANWANG DIGUI-163, 68137

Orbit data source: Space-Track

HULIANWANG DIGUI-163, 68137 is a payload satellite owned by Zhongguo Xingwang (CN) in LEO that was launched on Thu, 12 Mar 2026 UTC via a CHANG ZHENG 8A launch vehicle from the Wenchang Satellite Launch Center (WSC). Payload-class satellites include a variety of spacecraft equipped with specific instruments for various scientific and technological missions. These include communications satellites like Starlink; space stations such as the ISS; scientific satellites like the Hubble; Earth observation satellites from companies like Planet Labs, Umbra, and HawkEye 360; GPS; miniature CubeSats for education and research; and military/defense satellites.

Loading next visibility...
Identifier
68137, 2026-047J
Orbit
LEO
Country
Flag of CNCN / PRC
Related business
Manufacturer
CAST?
Mission
Operational spacecraft
Bus & Motor
XINGWANG C, Unknown motor
Mass
~700 kg wet, ~700 kg dry
Launch date (UTC)
2026-03-12 (1 month ago)
Launch vehicle
CHANG ZHENG 8A
Launch site
Wenchang Satellite Launch Center (WSC)
Object type
Payload
Rocket body
Debris
Shape & HBR
Unknown
Radar Cross Section
RCS unknown

Expand to show TLE details & history
Last TLE update: 21 hours ago

TLE from 21 hours ago
0 HULIANWANG DIGUI-163
1 68137U 26047J   26104.67770830 -.00000141  00000-0 -40497-5 0  9992
2 68137  50.0069 286.4975 0000513 247.0777 113.0058 13.67686661  4586
Epoch: 2026-04-14T16:15Z
TLE epoch observation values (Epoch: 2026-04-14T16:15:53.997Z)
Latitude
0.00002°
Longitude
-160.32799°
Altitude
1,008.552 km
Speed
7.349 km/s
True Right ascension
19h 05m 59s
True Declination
0° 00' 00"
Sunlit
Object was in daylight at epoch
Visualization orbit readout
Latitude
Unknown
Longitude
Unknown
Altitude
Unknown
Speed
Unknown
Apparent Right ascension
Unknown
Apparent Declination
Unknown
Sunlit
N/A
Visualization observer readout
Local Sidereal Time
19:40:51
Azimuth
Unknown
Elevation
Unknown
Doppler factor
Unknown
Orbital elements
Apogee altitude
1,008.984 km
Perigee altitude
1,008.227 km
Semi-major axis
7,386.743 km
Eccentricity
0.00005
Inclination
50.0069°
RAAN
286.4975°
Arg. of periapsis
247.0777°
True anomaly
113.01121°
Mean anomaly
113.0058°
Eccentric anomaly
113.00851°
Mean motion
3.41872 °/min
Orbital period
105.3 mins
BSTAR
-0.0000040497
Loading maneuver chart data...
Computing Atmospheric mass density...
Loading historical data...
Loading historical data...
Loading historical data...
Loading historical data...
Loading historical data...
Loading historical data...
Loading historical data...

Documentation

Showing up to 5 results
|